Regional Weather Roundup
Issued by NWS Cleveland, OH

Home | Current Version | Previous Version | Text Only | Print | Product List | Glossary Off
Versions: 1 2 3 4 5 6 7 8 9 10 11 12 13 14 15 16 17 18 19 20 21 22 23 24 25 26 27 28 29 30 31 32 33 34 35 36 37 38 39 40 41 42 43 44 45 46 47 48 49 50

000
ASUS41 KCLE 312100
RWRCLE
OHIO REGIONAL WEATHER ROUNDUP
NATIONAL WEATHER SERVICE WILMINGTON, OH
500 PM EDT FRI OCT 31 2014

NOTE: "FAIR" INDICATES FEW OR NO CLOUDS BELOW 12,000 FEET WITH NO
SIGNIFICANT WEATHER AND/OR OBSTRUCTIONS TO VISIBILITY.

OHZ001>008-015>018-024>027-034-035-043-044-312200-
   NORTHWEST OHIO

CITY           SKY/WX    TMP DP  RH WIND       PRES   REMARKS
DEFIANCE       LGT RAIN  40  36  86 N17G31    29.94R
FINDLAY        LGT RAIN  43  39  86 NW13      29.88R
TOLEDO EXPRESS LGT RAIN  40  37  89 N14G21    29.91R FOG
TOLEDO METCALF LGT RAIN  42  38  85 NW14      29.90R
LIMA           LGT RAIN  42  38  85 NW10      29.89S
$$

OHZ009>014-019>023-028>033-038-089-312200-
   NORTHEAST OHIO

CITY           SKY/WX    TMP DP  RH WIND       PRES   REMARKS
CLE-HOPKINS    LGT RAIN  45  40  82 NW5       29.88R
CLE-LAKEFRONT  LGT RAIN N/A N/A N/A W7        29.86R
CUY CO. ARPT   CLOUDY    48  41  76 NW7       29.86S
LORAIN-ELYRIA  LGT RAIN  44  39  82 CALM      29.86S
ASHTABULA      CLOUDY    47  37  68 CALM      29.86S
AKRON-CANTON   LGT RAIN  46  39  76 S3        29.84S
WOOSTER        NOT AVBL
MANSFIELD      LGT RAIN  43  39  86 CALM      29.84S
YOUNGSTOWN     LGT RAIN  46  37  71 S3        29.85S
$$

OHZ042-051>053-060>062-070>072-077>081-312200-
  SOUTHWEST OHIO

CITY           SKY/WX    TMP DP  RH WIND       PRES   REMARKS
CINC-COVINGTON LGT RAIN  40  35  83 NW18G24   29.93S
CINC-LUNKEN    LGT RAIN  42  36  79 NW6       29.95S
HAMILTON       LGT RAIN  41  37  86 NW10      29.95R
DAYTON         NOT AVBL
WRIGHT-PAT AFB LGT RAIN  41  37  87 NW8       29.90R
DAYTON GENERAL CLOUDY    40  36  86 NW8       29.90S
WILMINGTON     LGT RAIN  40  36  86 NW17G23   29.89R
$$

OHZ036-037-039>041-045>050-054>059-063>069-073>076-082>088-312200-
  CENTRAL AND SOUTHEAST OHIO

CITY           SKY/WX    TMP DP  RH WIND       PRES   REMARKS
COLUMBUS       LGT RAIN  42  38  85 NW12      29.85S
OSU AIRPORT    LGT RAIN  42  38  85 NW9       29.86R
BOLTON FIELD   LGT RAIN  41  39  93 NW8       29.87R
RICKENBACK AFB NOT AVBL
NEWARK         LGT RAIN  43  39  86 CALM      29.85R
MARION         LGT RAIN  42  38  85 NW12      29.86R
LANCASTER      LGT RAIN  44  41  89 SW3       29.85S
ZANESVILLE     LGT RAIN  44  40  85 CALM      29.85S
NEW PHILLY     LGT RAIN  47  39  74 S3        29.86S
$$



USA.gov is the U.S. government's official web portal to all federal, state and local government web resources and services.